sat.trackr.live / text

‹ back to catalog

STARLINK-37975

NORAD 69707 · 2026-147D

PAYLOAD ACTIVE UNKNOWN

§ Identity

Operator
Country
US
Launch date
2026-06-28
Launch site
AFWTR
Launch vehicle
Mass (kg)
RCS (m²)

Purposes: comms

External: N2YO · Heavens-Above · Gunter

§ Orbital elements

Epoch: 2026-09-19T08:25:22.810944Z

Period
93.91 min
Inclination
97.2821°
Eccentricity
0.0002210
Mean motion
15.33451859 rev/d
Perigee alt
464.0 km
Apogee alt
467.0 km
Semi-major
6,843.7 km
B*
3.6168e-4
RAAN
298.6672°
Arg perigee
102.3358°
Mean anomaly
257.8132°
Rev number
1,405

§ Raw data

STARLINK-379751 69707U 26147D   26262.35095846  .00011622  00000+0  36168-3 0  99952 69707  97.2821 298.6672 0002210 102.3358 257.8132 15.33451859 14059

JSON: /api/v1/satellites/69707 · /tle

For live sub-satellite position, see the globe view (requires WebGL).

§ Visibility from observer

Set your observer location to see the next 7 days of passes ≥ 10°. The values pass through the URL so the page stays shareable.

No JS? Fill the form by hand. The geolocation button needs JavaScript.